Barrow, AK

5:15 AM AKDT on April 25, 2017 (GMT -0800)
Wiley Post-Will Rogers Memorial

Weather History for PABR - August, 2013

Change the Weather History Date:

Saturday, August 24, 2013

  Actual Average Record
Temperature  
Mean Temperature 37 °F 38 °F  
Max Temperature 38 °F 43 °F 70 °F (1979)
Min Temperature 35 °F 34 °F 24 °F (1944)
Degree Days  
Heating Degree Days 28 27  
Month to date heating degree days 583 614  
Since 1 June heating degree days 1990 2241  
Since 1 July heating degree days 1212 1361  
Cooling Degree Days 0    
Month to date cooling degree days 0  
Year to date cooling degree days 0  
Since 1 June cooling degree days 0  
Moisture  
Dew Point 33 °F    
Average Humidity 0    
Maximum Humidity 0    
Minimum Humidity 0    
Precipitation  
Precipitation T in 0.03 in 0.54 in (2009)
Month to date precipitation 1.28 0.82  
Year to date precipitation 4.95 2.82  
Snow  
Snow T in 0.00 in 0.40 in (1924)
Month to date snowfall 0.5 0.5  
Since 1 June snowfall 0.8 1.4  
Since 1 July snowfall 0.5 0.7  
Snow Depth 0.00 in    
Sea Level Pressure  
Sea Level Pressure 30.05 in    
Wind  
Wind Speed 9 mph (NW)    
Max Wind Speed 14 mph    
Max Gust Speed 16 mph    
Visibility 10 miles    
Events Snow    
T = Trace of Precipitation, MM = Missing Value Source: NWS Daily Summary

Daily Weather History Graph

Daily Weather History Graph

Search for Another Location

Airport or City:

Trip Planner

Search our weather history database for the weather conditions in past years. The results will help you decide how hot, cold, wet, or windy it might be!

Date:

Astronomy

Aug. 24, 2013 Rise Set
Actual Time 5:57 AM AKDT 10:57 PM AKDT
Civil Twilight 4:11 AM AKDT 12:38 AM AKDT
Nautical Twilight Sun does not set Sun does not set
Astronomical Twilight Sun does not set Sun does not set
Moon 9:26 PM AKDT (8/24) 1:31 PM AKDT (8/24)
Length of Visible Light 20h 27m
Length of Day
17h 00m
Waning Gibbous, 83% of the Moon is Illuminated
Aug 24
Waning Gibbous
Aug 28
Last Quarter
Sep 5
New
Sep 12
First Quarter
Sep 19
Full

Hourly Weather History & Observations

Time (AKDT) Temp. Windchill Dew Point Humidity Pressure Visibility Wind Dir Wind Speed Gust Speed Precip Events Conditions
12:53 AM 36.0 °F - 30.9 °F 82% 30.01 in 10.0 mi Calm Calm - N/A   Overcast
1:46 AM 35.6 °F 30.7 °F 33.8 °F 93% 30.01 in 10.0 mi WNW 5.8 mph - N/A   Overcast
1:53 AM 36.0 °F 32.1 °F 33.1 °F 89% 30.02 in 10.0 mi WNW 4.6 mph - N/A   Overcast
2:29 AM 35.6 °F 29.9 °F 33.8 °F 93% 30.01 in 10.0 mi WNW 6.9 mph - N/A   Overcast
2:53 AM 36.0 °F 32.1 °F 33.1 °F 89% 30.01 in 10.0 mi WNW 4.6 mph - N/A   Overcast
3:53 AM 36.0 °F 32.1 °F 33.1 °F 89% 30.02 in 10.0 mi West 4.6 mph - N/A   Overcast
4:38 AM 37.4 °F 32.1 °F 32.0 °F 81% 30.02 in 10.0 mi WNW 6.9 mph - N/A   Overcast
4:53 AM 36.0 °F 29.6 °F 33.1 °F 89% 30.02 in 10.0 mi WNW 8.1 mph - N/A   Overcast
5:02 AM 35.6 °F 29.9 °F 33.8 °F 93% 30.02 in 10.0 mi WNW 6.9 mph - N/A   Overcast
5:27 AM 35.6 °F 29.2 °F 33.8 °F 93% 30.02 in 10.0 mi WNW 8.1 mph - N/A   Overcast
5:53 AM 35.1 °F 27.9 °F 33.1 °F 92% 30.03 in 5.0 mi WNW 9.2 mph - 0.00 in Snow Light Snow
6:28 AM 35.6 °F 29.2 °F 33.8 °F 93% 30.02 in 10.0 mi WNW 8.1 mph - 0.00 in   Overcast
6:53 AM 36.0 °F 29.6 °F 33.1 °F 89% 30.03 in 9.0 mi WNW 8.1 mph - 0.00 in   Overcast
7:08 AM 35.6 °F 29.2 °F 33.8 °F 93% 30.03 in 10.0 mi WNW 8.1 mph - N/A   Overcast
7:53 AM 36.0 °F 28.5 °F 33.1 °F 89% 30.04 in 10.0 mi WNW 10.4 mph - 0.00 in   Overcast
8:00 AM 35.6 °F 28.0 °F 33.8 °F 93% 30.03 in 10.0 mi WNW 10.4 mph - N/A   Overcast
8:53 AM 36.0 °F 28.0 °F 33.1 °F 89% 30.04 in 10.0 mi WNW 11.5 mph - 0.00 in   Light Drizzle
9:53 AM 36.0 °F 28.0 °F 34.0 °F 93% 30.04 in 10.0 mi WNW 11.5 mph - 0.00 in   Light Drizzle
10:53 AM 36.0 °F 28.5 °F 34.0 °F 93% 30.05 in 10.0 mi WNW 10.4 mph - 0.00 in   Overcast
11:53 AM 37.0 °F 30.4 °F 33.1 °F 86% 30.05 in 10.0 mi NW 9.2 mph - 0.00 in   Overcast
12:53 PM 37.0 °F 30.4 °F 33.1 °F 86% 30.06 in 10.0 mi NW 9.2 mph - N/A   Overcast
1:53 PM 37.0 °F 29.8 °F 33.1 °F 86% 30.07 in 10.0 mi NW 10.4 mph - 0.00 in   Light Drizzle
2:53 PM 37.0 °F 29.8 °F 33.1 °F 86% 30.07 in 10.0 mi NW 10.4 mph - 0.00 in   Overcast
3:53 PM 37.0 °F 29.3 °F 34.0 °F 89% 30.08 in 10.0 mi NW 11.5 mph - 0.00 in   Overcast
4:53 PM 37.0 °F 29.3 °F 34.0 °F 89% 30.08 in 10.0 mi NW 11.5 mph - N/A   Overcast
5:00 PM 37.4 °F 29.8 °F 33.8 °F 87% 30.07 in 10.0 mi NW 11.5 mph - N/A   Overcast
5:53 PM 37.0 °F 28.9 °F 34.0 °F 89% 30.08 in 10.0 mi NNW 12.7 mph - N/A   Overcast
6:53 PM 37.0 °F 29.3 °F 34.0 °F 89% 30.08 in 10.0 mi NNW 11.5 mph - N/A   Overcast
7:53 PM 37.0 °F 30.4 °F 33.1 °F 86% 30.08 in 10.0 mi NNW 9.2 mph - N/A   Overcast
8:53 PM 37.0 °F 30.4 °F 33.1 °F 86% 30.08 in 10.0 mi NNW 9.2 mph - N/A   Overcast
9:53 PM 36.0 °F 29.6 °F 34.0 °F 93% 30.08 in 8.0 mi NNW 8.1 mph - 0.00 in Snow Light Snow
10:53 PM 36.0 °F 30.3 °F 33.1 °F 89% 30.09 in 10.0 mi NNW 6.9 mph - 0.00 in   Overcast
11:53 PM 36.0 °F 29.0 °F 34.0 °F 93% 30.09 in 10.0 mi North 9.2 mph - 0.00 in Snow Light Snow